FW1042 Weather Reports


Display with metric or nautical units.
time (UTC)temp
F
wind
direction
speed
MPH
gust
MPH
rain 1hr
in
rain 24hr
in
rain mn
in
humidity
%
barometer
mb
20260506224254 65 343 3.0 10.0 0.00 0.02 0.02 70 1013.5
20260506223456 65 319 3.0 9.0 0.00 0.02 0.02 70 1013.5
20260506222956 65 31 3.0 9.0 0.00 0.02 0.02 70 1013.5
20260506222456 65 31 4.0 10.0 0.00 0.02 0.02 69 1013.6
20260506221956 65 72 3.0 10.0 0.00 0.02 0.02 70 1013.5
20260506221457 65 321 2.0 8.0 0.00 0.02 0.02 70 1013.5
20260506220956 64 315 3.0 8.0 0.00 0.02 0.02 70 1013.5
20260506220500 64 333 3.0 8.0 0.00 0.02 0.02 70 1013.5
20260506215956 64 350 4.0 10.0 0.00 0.02 0.02 70 1013.4
20260506215749 64 17 4.0 11.0 0.00 0.02 0.02 70 1013.3
20260506214957 64 5 5.0 11.0 0.00 0.02 0.02 71 1013.1
20260506214457 63 336 4.0 11.0 0.00 0.02 0.02 71 1013.3
20260506213956 63 345 4.0 11.0 0.00 0.02 0.02 71 1013.3
20260506213502 63 328 4.0 11.0 0.00 0.02 0.02 71 1013.5
20260506212956 63 9 4.0 11.0 0.00 0.02 0.02 71 1013.5
20260506212454 63 18 3.0 6.0 0.00 0.02 0.02 71 1013.6
20260506211955 63 0 3.0 7.0 0.00 0.02 0.02 71 1013.8
20260506211454 63 76 4.0 9.0 0.00 0.02 0.02 70 1013.7
20260506210952 63 346 4.0 10.0 0.00 0.02 0.02 70 1013.6
20260506210745 63 24 3.0 10.0 0.00 0.02 0.02 71 1013.5
20260506205946 63 28 4.0 9.0 0.00 0.02 0.02 71 1013.5
20260506205537 63 13 4.0 8.0 0.00 0.02 0.02 70 1013.5
20260506205522 63 20 4.0 9.0 0.00 0.02 0.02 71 1013.6
20260506204730 63 315 3.0 8.0 0.00 0.02 0.02 69 1013.8
20260506203944 64 47 4.0 8.0 0.00 0.02 0.02 69 1013.8
20260506203737 63 5 4.0 9.0 0.00 0.02 0.02 70 1013.7
20260506202944 63 28 3.0 10.0 0.00 0.02 0.02 70 1013.6
20260506202445 63 355 4.0 10.0 0.00 0.02 0.02 70 1013.9
20260506201944 63 333 4.0 10.0 0.00 0.02 0.02 70 1013.9
20260506201445 62 336 3.0 8.0 0.00 0.02 0.02 72 1013.9
20260506200944 62 289 4.0 8.0 0.00 0.02 0.02 72 1014.2
20260506200444 62 355 3.0 8.0 0.00 0.02 0.02 72 1014.4
20260506195944 61 293 3.0 7.0 0.00 0.02 0.02 73 1014.2
20260506195444 61 5 3.0 8.0 0.00 0.02 0.02 72 1014.4
20260506194938 61 321 2.0 8.0 0.00 0.02 0.02 72 1014.5
20260506194439 61 11 2.0 9.0 0.00 0.02 0.02 73 1014.9
20260506193938 61 350 3.0 9.0 0.00 0.02 0.02 72 1014.7
20260506193441 61 313 3.0 9.0 0.00 0.02 0.02 73 1014.6
20260506192939 61 32 4.0 9.0 0.00 0.02 0.02 74 1014.6
20260506192439 60 355 4.0 11.0 0.00 0.02 0.02 74 1014.6
20260506191938 60 36 4.0 11.0 0.00 0.02 0.02 74 1014.6
20260506191509 60 30 3.0 8.0 0.00 0.02 0.02 75 1014.7
20260506190939 60 26 3.0 8.0 0.00 0.02 0.02 74 1014.6
20260506190436 60 33 3.0 9.0 0.00 0.02 0.02 74 1014.7
20260506185938 60 348 3.0 10.0 0.00 0.02 0.02 74 1014.7
20260506185531 60 36 5.0 10.0 0.00 0.02 0.02 74 1014.1
20260506185513 60 327 4.0 10.0 0.00 0.02 0.02 73 1014.7
20260506184735 60 290 6.0 13.0 0.00 0.02 0.02 75 1013.6
20260506183936 60 24 6.0 14.0 0.00 0.02 0.02 74 1013.5
20260506183437 60 323 7.0 15.0 0.00 0.02 0.02 74 1013.5
20260506182936 60 351 7.0 15.0 0.00 0.02 0.02 74 1013.5
20260506182437 60 13 6.0 15.0 0.00 0.02 0.02 75 1013.4
20260506181936 59 345 5.0 12.0 0.00 0.02 0.02 78 1013.2
20260506181436 58 24 5.0 12.0 0.00 0.02 0.02 78 1013.5
20260506180936 58 342 6.0 12.0 0.00 0.02 0.02 79 1013.8
20260506180430 57 295 5.0 12.0 0.00 0.02 0.02 79 1013.8
20260506175930 57 55 5.0 13.0 0.00 0.02 0.02 81 1013.9
20260506175430 57 339 5.0 13.0 0.00 0.02 0.02 81 1013.9
20260506174934 56 68 5.0 14.0 0.00 0.02 0.02 82 1013.7
20260506174717 56 30 6.0 14.0 0.00 0.02 0.02 82 1013.8
20260506173931 56 5 7.0 14.0 0.00 0.02 0.02 82 1013.7
20260506173430 56 44 7.0 13.0 0.00 0.02 0.02 82 1013.6
20260506172932 56 323 6.0 13.0 0.00 0.02 0.02 83 1013.7
20260506172431 56 22 5.0 11.0 0.00 0.02 0.02 84 1013.9
20260506171932 55 351 6.0 14.0 0.00 0.02 0.02 84 1014.1
20260506171431 55 21 7.0 14.0 0.00 0.02 0.02 84 1014.1
20260506170931 55 33 7.0 14.0 0.00 0.02 0.02 84 1014.1
20260506170432 55 348 6.0 14.0 0.00 0.02 0.02 85 1014.4
20260506165932 55 20 6.0 14.0 0.00 0.02 0.02 86 1014.3
20260506165430 55 52 6.0 12.0 0.00 0.02 0.02 86 1014.4
20260506164931 55 9 5.0 12.0 0.00 0.02 0.02 87 1014.7
20260506164730 54 348 5.0 10.0 0.01 0.02 0.02 87 1015.0
20260506163928 54 27 5.0 12.0 0.01 0.02 0.02 87 1015.2
20260506163428 55 42 4.0 12.0 0.02 0.02 0.02 87 1015.3
20260506162927 55 28 2.0 9.0 0.02 0.02 0.02 88 1015.5
20260506162426 55 325 2.0 8.0 0.02 0.02 0.02 88 1015.6
20260506161926 55 34 5.0 11.0 0.02 0.02 0.02 88 1015.1
20260506161427 55 34 7.0 14.0 0.02 0.02 0.02 89 1014.6
20260506160926 55 338 7.0 14.0 0.02 0.02 0.02 89 1013.7
20260506160426 55 0 5.0 15.0 0.02 0.02 0.02 89 1013.9
20260506155926 55 0 5.0 15.0 0.02 0.02 0.02 89 1013.9
20260506155427 55 15 5.0 13.0 0.02 0.02 0.02 89 1013.9
20260506154927 55 37 4.0 10.0 0.02 0.02 0.02 89 1014.0
20260506154426 54 9 4.0 8.0 0.01 0.01 0.01 87 1014.4
20260506153929 54 331 4.0 8.0 0.01 0.01 0.01 87 1014.8
20260506153716 54 355 3.0 8.0 0.00 0.00 0.00 86 1015.4
20260506152926 54 309 3.0 8.0 0.00 0.00 0.00 86 1016.5
20260506152426 54 323 2.0 5.0 0.00 0.00 0.00 86 1016.0
20260506151926 54 10 3.0 7.0 0.00 0.00 0.00 86 1015.7
20260506151422 54 11 3.0 8.0 0.00 0.00 0.00 86 1015.4
20260506150922 54 336 3.0 8.0 0.00 0.00 0.00 86 1015.2
20260506150423 54 0 3.0 7.0 0.00 0.00 0.00 86 1015.3
20260506145923 54 13 2.0 7.0 0.00 0.00 0.00 86 1015.1
20260506145516 54 5 5.0 13.0 0.00 0.00 0.00 86 1014.4
20260506145459 54 325 3.0 8.0 0.00 0.00 0.00 86 1014.8
20260506144422 54 355 5.0 13.0 0.00 0.00 0.00 85 1013.9
20260506143922 54 15 4.0 13.0 0.00 0.00 0.00 85 1014.4
20260506143422 54 11 4.0 10.0 0.00 0.00 0.00 86 1015.1
20260506142926 54 19 4.0 10.0 0.00 0.00 0.00 85 1015.2
20260506142422 54 26 4.0 10.0 0.00 0.00 0.00 86 1014.9
20260506141922 54 0 5.0 10.0 0.00 0.00 0.00 85 1014.7
20260506141718 54 349 5.0 10.0 0.00 0.00 0.00 86 1014.9
20260506140922 53 32 5.0 11.0 0.00 0.00 0.00 86 1014.6
20260506140421 53 355 5.0 12.0 0.00 0.00 0.00 85 1014.4
20260506135922 53 16 6.0 15.0 0.00 0.00 0.00 85 1014.3
20260506135421 53 14 6.0 15.0 0.00 0.00 0.00 85 1014.2
20260506134922 53 5 5.0 14.0 0.00 0.00 0.00 85 1014.1
20260506134422 53 51 5.0 14.0 0.00 0.00 0.00 85 1013.9
20260506133922 53 288 5.0 11.0 0.00 0.00 0.00 86 1013.9
20260506133422 53 327 5.0 12.0 0.00 0.00 0.00 86 1014.1
20260506132922 53 13 5.0 12.0 0.00 0.00 0.00 86 1013.9
20260506132421 53 5 5.0 12.0 0.00 0.00 0.00 86 1013.7
20260506132212 53 0 4.0 12.0 0.00 0.00 0.00 86 1013.5
20260506131415 53 350 5.0 12.0 0.00 0.00 0.00 86 1013.5
20260506130916 53 11 5.0 12.0 0.00 0.00 0.00 86 1013.4
20260506130709 53 318 5.0 11.0 0.00 0.00 0.00 86 1013.4
20260506125916 53 11 6.0 11.0 0.00 0.00 0.00 85 1013.3
20260506125415 53 19 5.0 11.0 0.00 0.00 0.00 85 1013.5
20260506124916 53 355 4.0 10.0 0.00 0.00 0.00 85 1013.3
20260506124416 53 21 4.0 10.0 0.00 0.00 0.00 85 1013.3
20260506123917 53 339 5.0 11.0 0.00 0.00 0.00 85 1013.5
20260506123412 53 325 5.0 13.0 0.00 0.00 0.00 85 1013.4
20260506122912 53 63 5.0 14.0 0.00 0.00 0.00 84 1013.3
20260506122411 53 355 5.0 14.0 0.00 0.00 0.00 84 1013.2
20260506121912 53 305 5.0 12.0 0.00 0.00 0.00 83 1013.3
20260506121409 54 23 5.0 13.0 0.00 0.00 0.00 83 1013.4
20260506120910 54 5 5.0 13.0 0.00 0.00 0.00 82 1013.0
20260506120410 54 19 5.0 10.0 0.00 0.00 0.00 82 1013.0
20260506115910 54 273 5.0 11.0 0.00 0.00 0.00 82 1013.0
20260506115410 54 35 5.0 14.0 0.00 0.00 0.00 81 1013.0
20260506115201 54 5 5.0 14.0 0.00 0.00 0.00 81 1012.8
20260506114410 54 350 5.0 12.0 0.00 0.00 0.00 81 1012.8
20260506113911 54 304 5.0 11.0 0.00 0.00 0.00 81 1012.7
20260506113409 54 348 5.0 11.0 0.00 0.00 0.00 81 1012.6
20260506112909 54 24 6.0 12.0 0.00 0.00 0.00 80 1012.4
20260506112409 55 53 6.0 13.0 0.00 0.00 0.00 80 1012.2
20260506111909 55 0 5.0 13.0 0.00 0.00 0.00 80 1012.4
20260506111702 55 12 5.0 12.0 0.00 0.00 0.00 79 1012.4
20260506111200 55 0 4.0 11.0 0.00 0.00 0.00 79 1012.2
20260506110410 55 290 4.0 11.0 0.00 0.00 0.00 79 1012.1
20260506105908 55 9 6.0 13.0 0.00 0.00 0.00 79 1012.0
20260506105408 55 348 5.0 13.0 0.00 0.00 0.00 78 1011.7
20260506104907 55 5 5.0 9.0 0.00 0.00 0.00 78 1011.8
20260506104408 55 22 5.0 14.0 0.00 0.00 0.00 78 1011.7
20260506103907 56 10 5.0 14.0 0.00 0.00 0.00 77 1011.7
20260506103403 56 0 5.0 10.0 0.00 0.00 0.00 78 1011.5
20260506103222 56 298 5.0 11.0 0.00 0.00 0.00 78 1011.5
20260506102401 56 30 5.0 11.0 0.00 0.00 0.00 78 1011.3
20260506101859 56 16 6.0 11.0 0.00 0.00 0.00 78 1011.3
20260506101359 56 0 6.0 13.0 0.00 0.00 0.00 77 1011.2
20260506100856 56 5 6.0 13.0 0.00 0.00 0.00 77 1011.1
20260506100356 56 0 5.0 12.0 0.00 0.00 0.00 77 1011.0
20260506095854 56 25 5.0 13.0 0.00 0.00 0.00 77 1011.1
20260506095354 56 355 5.0 13.0 0.00 0.00 0.00 77 1011.0
20260506094856 56 0 5.0 12.0 0.00 0.00 0.00 77 1011.0
20260506094353 56 5 4.0 12.0 0.00 0.00 0.00 77 1011.0
20260506093854 56 5 5.0 14.0 0.00 0.00 0.00 77 1010.8
20260506093346 56 289 5.0 14.0 0.00 0.00 0.00 76 1010.7
20260506092842 56 336 5.0 13.0 0.00 0.00 0.00 77 1010.8
20260506092339 56 346 5.0 13.0 0.00 0.00 0.00 77 1010.7
20260506092139 56 0 5.0 12.0 0.00 0.00 0.00 77 1010.9
20260506091338 56 345 5.0 12.0 0.00 0.00 0.00 76 1010.9
20260506090838 57 49 5.0 10.0 0.00 0.00 0.00 76 1010.7
20260506090338 57 333 4.0 9.0 0.00 0.00 0.00 76 1010.6
20260506085842 57 304 4.0 12.0 0.00 0.00 0.00 76 1010.6
20260506085337 57 355 4.0 12.0 0.00 0.00 0.00 76 1010.5
20260506084839 57 300 4.0 12.0 0.00 0.00 0.00 76 1010.4
20260506084339 57 355 4.0 10.0 0.00 0.00 0.00 77 1010.4
20260506083839 57 336 5.0 10.0 0.00 0.00 0.00 76 1010.4
20260506083442 57 325 3.0 9.0 0.00 0.00 0.00 77 1010.4
20260506083423 57 344 4.0 9.0 0.00 0.00 0.00 77 1010.4
20260506082335 57 5 3.0 8.0 0.00 0.00 0.00 77 1010.2
20260506081836 57 333 4.0 10.0 0.00 0.00 0.00 77 1010.2
20260506081336 57 342 4.0 10.0 0.00 0.00 0.00 77 1010.2
20260506081135 57 297 3.0 10.0 0.00 0.00 0.00 77 1010.2
20260506080333 57 332 3.0 8.0 0.00 0.00 0.00 77 1010.2
20260506080136 57 355 3.0 8.0 0.00 0.00 0.00 77 1010.1
20260506072827 58 355 4.0 8.0 0.00 0.00 0.00 77 1009.8
20260506072325 58 18 4.0 8.0 0.00 0.00 0.00 77 1009.8
20260506071824 58 355 4.0 8.0 0.00 0.00 0.00 78 1009.8
20260506071324 58 34 5.0 11.0 0.00 0.00 0.00 78 1009.8
20260506070822 58 9 5.0 11.0 0.00 0.00 0.00 78 1009.8
20260506070321 58 5 5.0 11.0 0.00 0.00 0.00 78 1010.0
20260506062319 59 15 4.0 10.0 0.00 0.00 0.00 78 1010.0
20260506062115 59 355 4.0 11.0 0.00 0.00 0.00 78 1010.0
20260506061314 59 355 5.0 11.0 0.00 0.00 0.00 78 1010.0
20260506060808 59 330 5.0 11.0 0.00 0.00 0.00 78 1010.0
20260506060306 59 317 6.0 11.0 0.00 0.00 0.00 78 1010.1
20260506051305 60 19 6.0 11.0 0.00 0.00 0.00 79 1009.8
20260506050806 60 339 6.0 12.0 0.00 0.00 0.00 79 1009.9
20260506050306 61 277 6.0 12.0 0.00 0.00 0.00 80 1009.8
20260506050127 61 355 6.0 11.0 0.00 0.00 0.00 80 1009.7
20260506045059 61 36 5.0 12.0 0.00 0.00 0.00 80 1009.7
20260506044304 61 355 5.0 11.0 0.00 0.00 0.00 80 1009.6
20260506043843 62 330 5.0 13.0 0.00 0.00 0.00 81 1009.7
20260506043834 62 19 5.0 13.0 0.00 0.00 0.00 81 1009.7
20260506042758 62 351 5.0 12.0 0.00 0.00 0.00 81 1009.7
20260506042256 62 332 5.0 11.0 0.00 0.00 0.00 81 1009.5
20260506041758 62 298 6.0 11.0 0.00 0.00 0.00 81 1009.6
20260506041255 62 355 5.0 13.0 0.00 0.00 0.00 80 1009.5
20260506040755 62 17 6.0 13.0 0.00 0.00 0.00 80 1009.4
20260506040552 63 355 7.0 13.0 0.00 0.00 0.00 80 1009.3
20260506035754 63 310 6.0 13.0 0.00 0.00 0.00 80 1009.3
20260506035554 63 30 7.0 14.0 0.00 0.00 0.00 80 1009.2
20260506034745 63 13 7.0 14.0 0.00 0.00 0.00 80 1008.9
20260506034546 63 344 7.0 13.0 0.00 0.00 0.00 80 1009.1
20260506034039 63 14 6.0 15.0 0.00 0.00 0.00 79 1008.8
20260506033541 64 5 7.0 15.0 0.00 0.00 0.00 79 1008.9
20260506033044 64 310 6.0 13.0 0.00 0.00 0.00 79 1008.7
20260506032247 64 312 5.0 13.0 0.00 0.00 0.00 79 1008.7
20260506032036 65 5 5.0 10.0 0.00 0.00 0.00 79 1008.9
20260506031240 65 273 5.0 11.0 0.00 0.00 0.00 78 1008.9
20260506030741 65 350 5.0 14.0 0.00 0.00 0.00 78 1008.4
20260506030238 65 0 6.0 14.0 0.00 0.00 0.00 78 1008.4
20260506030049 66 9 6.0 14.0 0.00 0.00 0.00 77 1008.5
20260506025239 66 0 5.0 14.0 0.00 0.00 0.00 77 1008.2
20260506024738 66 333 6.0 13.0 0.00 0.00 0.00 77 1008.3
20260506024234 67 329 6.0 14.0 0.00 0.00 0.00 77 1008.1
20260506023737 67 11 6.0 14.0 0.00 0.00 0.00 77 1008.0
20260506023233 68 306 6.0 13.0 0.00 0.00 0.00 76 1007.7
20260506022732 68 340 5.0 12.0 0.00 0.00 0.00 76 1007.3
20260506022232 68 331 5.0 12.0 0.00 0.00 0.00 76 1007.1
20260506021733 69 355 5.0 12.0 0.00 0.00 0.00 76 1007.1
20260506021232 69 17 5.0 13.0 0.00 0.00 0.00 75 1007.1
20260506020733 69 323 5.0 13.0 0.00 0.00 0.00 75 1007.0
20260506020618 69 0 5.0 11.0 0.00 0.00 0.00 75 1006.9
20260506020614 69 341 5.0 11.0 0.00 0.00 0.00 75 1006.9
20260506015233 69 5 6.0 11.0 0.00 0.00 0.00 74 1006.7
20260506014732 70 16 6.0 11.0 0.00 0.00 0.00 73 1006.7
20260506014231 70 15 6.0 14.0 0.00 0.00 0.00 73 1006.8
20260506013730 71 288 5.0 14.0 0.00 0.00 0.00 72 1006.3
20260506013232 72 5 4.0 14.0 0.00 0.00 0.00 73 1006.3
20260506012729 72 303 3.0 11.0 0.00 0.00 0.00 72 1006.3
20260506012227 72 325 3.0 9.0 0.00 0.00 0.00 72 1006.1
20260506011728 72 310 3.0 8.0 0.00 0.00 0.00 72 1006.2
20260506011225 72 349 3.0 8.0 0.00 0.00 0.00 71 1006.0
20260506010725 72 355 3.0 8.0 0.00 0.00 0.00 71 1005.8
20260506010222 73 315 3.0 9.0 0.00 0.00 0.00 71 1006.1
20260506005723 73 5 3.0 9.0 0.00 0.00 0.00 70 1006.3
20260506005223 73 333 4.0 9.0 0.00 0.00 0.00 70 1006.0
20260506004721 73 24 4.0 9.0 0.00 0.00 0.00 69 1005.5
20260506004517 73 5 4.0 9.0 0.00 0.00 0.00 69 1005.5
20260506003720 73 304 4.0 10.0 0.00 0.00 0.00 69 1005.8
20260506003221 74 355 5.0 12.0 0.00 0.00 0.00 69 1005.6
20260506002721 74 329 4.0 12.0 0.00 0.00 0.00 68 1005.5
20260506002214 74 301 4.0 10.0 0.00 0.00 0.00 68 1005.1
20260506001708 74 289 4.0 11.0 0.00 0.00 0.00 67 1005.2
20260506001203 75 310 5.0 11.0 0.00 0.00 0.00 67 1005.2
20260506000956 75 304 5.0 13.0 0.00 0.00 0.00 67 1005.0
20260506000205 76 5 5.0 13.0 0.00 0.00 0.00 66 1005.0
20260505235703 76 338 6.0 14.0 0.00 0.00 0.00 65 1005.2
20260505235204 77 273 7.0 14.0 0.00 0.00 0.00 65 1005.0
20260505234703 78 355 6.0 13.0 0.00 0.00 0.00 64 1005.1
20260505234204 78 15 5.0 13.0 0.00 0.00 0.00 64 1004.8
20260505233702 79 325 5.0 11.0 0.00 0.00 0.00 63 1004.8
20260505233202 79 275 5.0 11.0 0.00 0.00 0.00 63 1004.7
20260505232703 79 250 6.0 14.0 0.00 0.00 0.00 62 1004.7
20260505232203 80 344 6.0 14.0 0.00 0.00 0.00 61 1004.7
20260505231704 80 317 6.0 14.0 0.00 0.00 0.00 60 1004.8
20260505231202 81 329 6.0 14.0 0.00 0.00 0.00 60 1004.5
20260505230703 82 25 6.0 14.0 0.00 0.00 0.00 59 1004.5
20260505230204 83 349 6.0 13.0 0.00 0.00 0.00 58 1004.3
20260505225703 84 0 5.0 11.0 0.00 0.00 0.00 57 1004.2
20260505225449 85 312 5.0 11.0 0.00 0.00 0.00 54 1003.9
20260505224803 87 26 3.0 8.0 0.00 0.00 0.00 49 1004.1
20260505224745 86 348 3.0 11.0 0.00 0.00 0.00 52 1003.9